Location: Burtsch�tz
(51.0528°N, 12.1764°E)
Time: 01:29:16
(UTC+00:00)

Cosmos 1553 Rocket - Pass Details

Date: 29 October 2020
Orbit: 940 x 1009 km, 82.9° (Epoch: 23 November)

Event Time Altitude Azimuth Distance (km) Brightness Sun altitude
Rises 17:42:22 0° 193° (SSW) 3,709 7.2 -18.1°
Reaches altitude 10° 17:44:54 10° 194° (SSW) 2,756 6.5 -18.5°
Maximum altitude 17:51:14 77° 281° (W) 1,016 4.2 -19.5°
Drops below altitude 10° 17:57:31 10° 8° (N) 2,728 6.3 -20.5°
Sets 18:00:01 0° 10° (N) 3,669 7.0 -20.9°
